AirNav   Air Wisconsin pilot careers
 
 1052 users online  

25M Ripley Airport
Ripley, Mississippi, USA

GOING TO RIPLEY?


FAA INFORMATION EFFECTIVE 06 DECEMBER 2018

Location

FAA Identifier: 25M
Lat/Long: 34-43-21.8000N / 089-00-52.9000W
34-43.363333N / 089-00.881667W
34.7227222 / -89.0146944
(estimated)
Elevation: 466.9 ft. / 142.3 m (surveyed)
Variation: 01W (2005)
From city: 3 miles W of RIPLEY, MS
Time zone: UTC -6 (UTC -5 during Daylight Saving Time)
Zip code: 38663

Airport Operations

Airport use: Open to the public
Activation date: 04/1971
Control tower: no
ARTCC: MEMPHIS CENTER
FSS: GREENWOOD FLIGHT SERVICE STATION
NOTAMs facility: GWO (NOTAM-D service available)
Attendance: UNATNDD
Wind indicator: lighted
Segmented circle: yes
Lights: DUSK-2200. AFTER 2200 ACTVT PAPI 03/21 & MIRL RWY 03/21 - CTAF.
Beacon: white-green (lighted land airport)
Operates sunset to sunrise.

Airport Communications

CTAF/UNICOM: 122.8
  • APCH/DEP SVC PRVDD BY MEMPHIS ARTCC ON FREQS 135.9/260.6 (TUPELO RCAG).

Nearby radio navigation aids

VOR radial/distance  VOR name  Freq  Var
HLIr094/23.9HOLLY SPRINGS VORTAC112.4003E
OTBr336/31.8TUPELO VOR/DME109.8004E

Airport Services

Fuel available: 100LL JET-A
SELF SVC CREDIT CARD FUEL AVBL 24 HRS.
Parking: tiedowns
Airframe service: NONE
Powerplant service: NONE
Bottled oxygen: NONE
Bulk oxygen: NONE

Runway Information

Runway 3/21

Dimensions: 4400 x 75 ft. / 1341 x 23 m
Surface: asphalt, in good condition
Weight bearing capacity: 
Single wheel: 20.0
Runway edge lights: medium intensity
Gradient: NE
RUNWAY 3  RUNWAY 21
Latitude: 34-43.055667N34-43.672667N
Longitude: 089-01.112667W089-00.650500W
Elevation: 433.0 ft.466.8 ft.
Gradient: 0.8% UP0.9%
Traffic pattern: leftleft
Runway heading: 033 magnetic, 032 true213 magnetic, 212 true
Markings: nonprecision, in good conditionnonprecision, in good condition
Visual slope indicator: 2-light PAPI on left (3.25 degrees glide path)2-light PAPI on left (3.50 degrees glide path)
Touchdown point: yes, no lightsyes, no lights
Obstructions: 65 ft. tree, 1500 ft. from runway, 300 ft. right of centerline, 20:1 slope to clear65 ft. trees, 1505 ft. from runway, 253 ft. right of centerline, 20:1 slope to clear

Airport Ownership and Management from official FAA records

Ownership: Publicly-owned
Owner: CITY OF RIPLEY & TIPPAH COUNTY
407 JACKSON ST
RIPLEY, MS 38663
Phone 662-837-7374
JOHNNY COOMBS, CHAIRMAN CO ARPT BOARD.
Manager: JOHNNY COOMBS
PO BOX 127
BLUE MOUNTAIN, MS 38610
Phone 662-587-9500

Airport Operational Statistics

Aircraft based on the field: 10
Single engine airplanes: 8
Multi engine airplanes: 2
    
Aircraft operations: avg 30/day *
61% transient general aviation
39% local general aviation
* for 12-month period ending 09 November 2017

Additional Remarks

WILDLIFE ON AND IN VCNTY OF ARPT.

Instrument Procedures

NOTE: All procedures below are presented as PDF files. If you need a reader for these files, you should download the free Adobe Reader.

NOT FOR NAVIGATION. Please procure official charts for flight.
FAA instrument procedures published for use from 6 December 2018 at 0901Z to 3 January 2019 at 0900Z.

 
IAPs - Instrument Approach Procedures
RNAV (GPS) RWY 03   download (195KB)
RNAV (GPS) RWY 21   download (191KB)
VOR/DME-A   download (165KB)
NOTE: Special Take-Off Minimums/Departure Procedures apply   download (116KB)

Other nearby airports with instrument procedures:

M72 - New Albany-Union County Airport (10 nm S)
8M1 - Booneville/Baldwyn Airport (20 nm SE)
KCRX - Roscoe Turner Airport (23 nm NE)
M41 - Holly Springs-Marshall County Airport (25 nm W)
M08 - William L Whitehurst Field Airport (30 nm N)
 
Loc | Ops | Rwys | IFR | FBO | Links
Com | Nav | Svcs | Stats | Notes


 
Area around 25M (Ripley Airport)
 
Road maps at: MapQuest Bing Google
 
Aerial photo
WARNING: Photo may not be current or correct
Aerial photo of 25M (Ripley Airport)
Photo by CS
Photo taken 01-Jun-2017
looking north.

Do you have a better or more recent aerial photo of Ripley Airport that you would like to share? If so, please send us your photo.

 
Sectional chart

 
Airport distance calculator
Flying to Ripley Airport? Find the distance to fly.

From to 25M

Sunrise and sunset
Times for 16-Dec-2018
 Local
(UTC-6)
 Zulu
(UTC)
Morning civil twilight06:3012:30
Sunrise06:5812:58
Sunset16:4622:46
Evening civil twilight17:1423:14

Current date and time
Zulu (UTC)  16-Dec-2018 18:06:45
Local (UTC-6)  16-Dec-2018 12:06:45
 
METAR
KCRX 
23nm NE 
161755Z AUTO 30004KT 10SM CLR 13/06 A3021 RMK AO2
KTUP 
30nm SE 
161753Z VRB05KT 10SM FEW017 13/07 A3024 RMK AO2 SLP239 T01280072 10128 20083 58010 $
KUOX 
33nm SW 
161755Z AUTO 00000KT 10SM CLR 12/07 A3026 RMK AO2
KFYE 
35nm NW 
161755Z AUTO 20004KT 10SM CLR 13/05 A3020 RMK A01
KSZY 
38nm NE 
161755Z AUTO 31003KT 10SM CLR 13/05 A3019 RMK A01
KOLV 
41nm NW 
161750Z 00000KT 10SM BKN250 12/05 A3023
TAF
KTUP 
30nm SE 
161726Z 1618/1718 26005KT P6SM BKN250 FM170000 VRB03KT P6SM SKC FM170600 VRB02KT 4SM BR SCT003 TEMPO 1708/1712 3/4SM BR OVC001 FM171200 00000KT 2SM BR OVC002 FM171500 VRB02KT 6SM BR SCT002
NOTAMs
Click for the latest NOTAMs
NOTAMs are issued by the DoD/FAA and will open in a separate window not controlled by AirNav.

 

 
 

FBO, Fuel Providers, and Aircraft Ground Support

  
 Business Name 
 
 Contact 
 
 Services / Description 
 
Fuel Prices
 
Comments
  
Ripley Airport 662-587-7070
no information available

If you are affiliated with Ripley Airport and would like to show here your services, contact info, web link, logo, and more, click here
100LL Jet A
SS $3.25 $3.00 
 Updated 14-Dec-2018
 
   3 read write
SS=Self service
Update Fuel Prices
 

Would you like to see your business listed on this page?

 If your business provides an interesting product or service to pilots, flight crews, aircraft, or users of the Ripley Airport, you should consider listing it here.  To start the listing process, click on the button below
 
Add a business
 

Other Pages about Ripley Airport

Update a link
 
Copyright © AirNav, LLC. All rights reserved. Privacy Policy  Contact